Language: 


Des rapports , des résumés tant et plus, au choix de chacun....


Données statistiques de la station
Quotidien Rapport Janvier 25, 2018 Unités:  Métrique    Anglais   les deux
« Précédent Jour
Suivant Jour »
Quotidien Hebdomadaire Mensuel Annuel Actuel
  Haut: Bas: Moyen:
Température: -17.8 °C -14.6 °C -13.3 °C
Pt de rosée: -17.8 °C -14.4 °C -13.5 °C
Humidité: Humidity % 85 % 95 %
Vitesse du vent: 0 km/h 0 km/h 11.1 km/h
Rafales: 0 km/h - -
Vent:- - SSW
Pression: 0 hPa 34164.7 hPa -
Précipitation: 7.62 mm    
Historical Graphs
 
 
Données statistiques pour Janvier 25, 2018
Heure Température Point de rosée Pression Vent Vitesse du vent Refales Humidité Pluie (taux horaire)
-17.8 °C -17.8 °C 0 hPa Calm     Humidity % 0 mm
00:01 -13.4 °C -13.3 °C 34235.8 hPa SW 22 km/h 31.4 km/h 98 % 0 mm
00:06 -13.4 °C -13.3 °C 34235.8 hPa SW 26.2 km/h 31.4 km/h 98 % 0 mm
00:11 -13.4 °C -13.3 °C 34235.8 hPa SW 20.9 km/h 27.7 km/h 98 % 0 mm
00:16 -13.4 °C -13.3 °C 34198.6 hPa SSW 22.5 km/h 27.7 km/h 98 % 0 mm
00:21 -13.4 °C -13.3 °C 34198.6 hPa SW 12.7 km/h 26.7 km/h 98 % 0 mm
00:26 -13.4 °C -13.3 °C 34198.6 hPa SSW 14 km/h 26.7 km/h 98 % 0 mm
00:31 -13.4 °C -13.3 °C 34235.8 hPa SSW 16.9 km/h 26.7 km/h 98 % 0 mm
00:36 -13.4 °C -13.3 °C 34235.8 hPa SW 18.7 km/h 26.7 km/h 98 % 0 mm
00:41 -13.3 °C -13.3 °C 34235.8 hPa SW 12.7 km/h 27.2 km/h 98 % 0 mm
00:46 -13.4 °C -13.3 °C 34198.6 hPa SW 14 km/h 27.2 km/h 98 % 0 mm
00:51 -13.3 °C -13.3 °C 34198.6 hPa WSW 19.2 km/h 26.7 km/h 98 % 0 mm
00:56 -13.3 °C -13.3 °C 34198.6 hPa SSW 19.6 km/h 26.7 km/h 98 % 0 mm
01:01 -13.3 °C -13.3 °C 34235.8 hPa SSW 19.2 km/h 24.8 km/h 98 % 0 mm
01:06 -13.3 °C -13.3 °C 34235.8 hPa SW 15.6 km/h 26.2 km/h 98 % 0 mm
01:11 -13.3 °C -13.3 °C 34235.8 hPa SSW 16.3 km/h 26.2 km/h 98 % 0 mm
01:16 -13.3 °C -13.3 °C 34235.8 hPa SW 19.6 km/h 26.2 km/h 98 % 0 mm
01:21 -13.3 °C -13.3 °C 34235.8 hPa SSW 14.5 km/h 26.2 km/h 98 % 0 mm
01:26 -13.3 °C -13.3 °C 34235.8 hPa SW 22.5 km/h 27.7 km/h 98 % 0 mm
01:31 -13.3 °C -13.3 °C 34235.8 hPa SSW 16.9 km/h 33.6 km/h 98 % 0 mm
01:36 -13.3 °C -13.3 °C 34235.8 hPa SSW 19.6 km/h 33.6 km/h 98 % 0 mm
01:41 -13.3 °C -13.3 °C 34235.8 hPa WSW 22.5 km/h 27.2 km/h 98 % 0 mm
01:46 -13.3 °C -13.3 °C 34235.8 hPa SW 16.3 km/h 26.2 km/h 98 % 0 mm
01:51 -13.3 °C -13.3 °C 34235.8 hPa WSW 16.9 km/h 26.2 km/h 98 % 0 mm
01:57 -13.3 °C -13.3 °C 34235.8 hPa SSW 16.9 km/h 20.9 km/h 98 % 0 mm
02:02 -13.3 °C -13.3 °C 34235.8 hPa SSW 12.7 km/h 20.9 km/h 98 % 0 mm
02:07 -13.3 °C -13.3 °C 34235.8 hPa SW 16.3 km/h 20.9 km/h 98 % 0 mm
02:12 -13.3 °C -13.3 °C 34235.8 hPa SW 15 km/h 20.3 km/h 98 % 0 mm
02:17 -13.3 °C -13.3 °C 34235.8 hPa SW 15 km/h 26.2 km/h 98 % 0 mm
02:22 -13.2 °C -13.3 °C 34235.8 hPa SSW 22 km/h 26.2 km/h 98 % 0 mm
02:27 -13.2 °C -13.3 °C 34235.8 hPa SSW 18.7 km/h 24.8 km/h 98 % 0 mm
02:32 -13.2 °C -13.3 °C 34235.8 hPa SW 16.3 km/h 24.8 km/h 98 % 0 mm
02:37 -13.2 °C -13.3 °C 34235.8 hPa SW 15.6 km/h 24.8 km/h 98 % 0 mm
02:42 -13.3 °C -13.3 °C 34235.8 hPa SW 16.3 km/h 26.2 km/h 98 % 0 mm
02:47 -13.3 °C -13.3 °C 34235.8 hPa SSW 17.9 km/h 26.2 km/h 98 % 0 mm
02:52 -13.3 °C -13.3 °C 34235.8 hPa SW 20.9 km/h 27.7 km/h 98 % 0 mm
02:57 -13.3 °C -13.3 °C 34235.8 hPa SSW 19.6 km/h 27.7 km/h 98 % 0 mm
03:02 -13.3 °C -13.3 °C 34235.8 hPa WSW 20.9 km/h 22 km/h 98 % 0 mm
03:07 -13.3 °C -13.3 °C 34235.8 hPa WSW 14.5 km/h 25.4 km/h 98 % 0 mm
03:12 -13.4 °C -13.3 °C 34235.8 hPa SW 15 km/h 25.4 km/h 98 % 0 mm
03:17 -13.4 °C -13.3 °C 34235.8 hPa SW 12.7 km/h 22 km/h 98 % 0 mm
03:22 -13.4 °C -13.3 °C 34235.8 hPa SW 14 km/h 22.5 km/h 98 % 0 mm
03:27 -13.4 °C -13.3 °C 34235.8 hPa SW 14.5 km/h 22.5 km/h 98 % 0 mm
03:32 -13.4 °C -13.3 °C 34235.8 hPa SSW 16.3 km/h 20.3 km/h 98 % 0 mm
03:37 -13.4 °C -13.3 °C 34235.8 hPa SSW 14.5 km/h 22.5 km/h 98 % 0 mm
03:42 -13.4 °C -13.3 °C 34235.8 hPa SSW 15.6 km/h 25.4 km/h 98 % 0 mm
03:47 -13.4 °C -13.3 °C 34235.8 hPa SSW 22.5 km/h 26.7 km/h 98 % 0 mm
03:52 -13.4 °C -13.3 °C 34235.8 hPa SW 22 km/h 26.7 km/h 98 % 0 mm
03:57 -13.4 °C -13.3 °C 34235.8 hPa WSW 19.2 km/h 27.7 km/h 98 % 0 mm
04:02 -13.4 °C -13.3 °C 34235.8 hPa SSW 22 km/h 27.7 km/h 98 % 0 mm
04:07 -13.4 °C -13.3 °C 34235.8 hPa SSW 15 km/h 26.2 km/h 98 % 0 mm
04:12 -13.4 °C -13.3 °C 34235.8 hPa SSW 17.9 km/h 22 km/h 98 % 0 mm
04:17 -13.4 °C -13.3 °C 34235.8 hPa SSW 22 km/h 22 km/h 98 % 0 mm
04:22 -13.4 °C -13.3 °C 34235.8 hPa SSW 8.9 km/h 22 km/h 98 % 0 mm
04:27 -13.4 °C -13.3 °C 34235.8 hPa SSW 16.3 km/h 25.4 km/h 98 % 0 mm
04:33 -13.4 °C -13.3 °C 34235.8 hPa SSW 19.2 km/h 25.4 km/h 98 % 0 mm
04:38 -13.3 °C -13.3 °C 34235.8 hPa SSW 14 km/h 22.5 km/h 98 % 7.62 mm
04:43 -13.3 °C -13.3 °C 34235.8 hPa SW 9.8 km/h 22 km/h 98 % 7.62 mm
04:48 -13.4 °C -13.3 °C 34235.8 hPa SSW 15 km/h 19.6 km/h 98 % 7.62 mm
04:53 -13.4 °C -13.3 °C 34235.8 hPa SSW 12.7 km/h 16.9 km/h 98 % 7.62 mm
04:58 -13.4 °C -13.3 °C 34235.8 hPa SSW 19.6 km/h 22.5 km/h 98 % 7.62 mm
05:03 -13.4 °C -13.3 °C 34198.6 hPa SSW 12.7 km/h 22.5 km/h 98 % 7.62 mm
05:08 -13.4 °C -13.3 °C 34198.6 hPa SSW 14 km/h 20.3 km/h 98 % 7.62 mm
05:13 -13.3 °C -13.3 °C 34198.6 hPa SW 15 km/h 19.2 km/h 98 % 7.62 mm
05:18 -13.4 °C -13.3 °C 34235.8 hPa SSW 22 km/h 22 km/h 98 % 7.62 mm
05:23 -13.4 °C -13.3 °C 34235.8 hPa South 19.6 km/h 25.4 km/h 98 % 7.62 mm
05:28 -13.4 °C -13.3 °C 34235.8 hPa SSW 12.2 km/h 25.4 km/h 98 % 7.62 mm
05:33 -13.4 °C -13.3 °C 34235.8 hPa SW 10.3 km/h 20.3 km/h 98 % 7.62 mm
05:38 -13.4 °C -13.3 °C 34235.8 hPa SSW 14 km/h 18.7 km/h 98 % 0 mm
05:43 -13.3 °C -13.3 °C 34235.8 hPa SW 15.6 km/h 18.7 km/h 98 % 0 mm
05:48 -13.3 °C -13.3 °C 34235.8 hPa SSW 8.9 km/h 16.9 km/h 98 % 0 mm
05:53 -13.3 °C -13.3 °C 34235.8 hPa SSW 14 km/h 16.9 km/h 98 % 0 mm
05:58 -13.3 °C -13.3 °C 34235.8 hPa SW 16.3 km/h 16.3 km/h 98 % 0 mm
06:03 -13.3 °C -13.3 °C 34235.8 hPa SW 15.6 km/h 19.2 km/h 98 % 0 mm
06:08 -13.3 °C -13.3 °C 34235.8 hPa SSW 14 km/h 19.6 km/h 98 % 0 mm
06:13 -13.3 °C -13.3 °C 34235.8 hPa SSW 9.3 km/h 19.6 km/h 98 % 0 mm
06:18 -13.3 °C -13.3 °C 34235.8 hPa SSW 20.3 km/h 20.9 km/h 98 % 0 mm
06:23 -13.3 °C -13.3 °C 34235.8 hPa SW 14 km/h 22.5 km/h 98 % 0 mm
06:28 -13.3 °C -13.3 °C 34235.8 hPa SSW 16.9 km/h 22.5 km/h 98 % 0 mm
06:33 -13.3 °C -13.3 °C 34235.8 hPa SSW 15.6 km/h 16.9 km/h 98 % 0 mm
06:38 -13.4 °C -13.3 °C 34235.8 hPa SSW 19.2 km/h 19.2 km/h 98 % 0 mm
06:43 -13.4 °C -13.3 °C 34235.8 hPa SSW 11.1 km/h 19.2 km/h 98 % 0 mm
06:48 -13.4 °C -13.3 °C 34235.8 hPa SSW 8.9 km/h 19.2 km/h 98 % 0 mm
06:53 -13.4 °C -13.3 °C 34235.8 hPa SSW 6.9 km/h 15 km/h 98 % 0 mm
06:58 -13.4 °C -13.3 °C 34235.8 hPa SSW 11.1 km/h 15.6 km/h 98 % 0 mm
07:04 -13.4 °C -13.3 °C 34235.8 hPa SSW 10.3 km/h 15.6 km/h 98 % 0 mm
07:09 -13.4 °C -13.3 °C 34235.8 hPa SSW 8 km/h 15.6 km/h 98 % 0 mm
07:14 -13.4 °C -13.3 °C 34235.8 hPa SSW 16.3 km/h 16.3 km/h 98 % 0 mm
07:19 -13.3 °C -13.3 °C 34235.8 hPa South 5.6 km/h 16.3 km/h 98 % 0 mm
07:24 -13.3 °C -13.3 °C 34235.8 hPa Calm   16.3 km/h 98 % 0 mm
07:29 -13.3 °C -13.3 °C 34235.8 hPa South 8 km/h 12.7 km/h 98 % 0 mm
07:31 -13.3 °C -13.3 °C 34235.8 hPa Calm   12.7 km/h 98 % 0 mm
07:36 -13.4 °C -13.3 °C 34235.8 hPa South 6.4 km/h 11.1 km/h 98 % 0 mm
07:41 -13.4 °C -13.3 °C 34235.8 hPa Calm   12.2 km/h 98 % 0 mm
07:46 -13.4 °C -13.3 °C 34235.8 hPa South 5.6 km/h 14 km/h 98 % 0 mm
07:51 -13.5 °C -13.3 °C 34235.8 hPa SSW 10.3 km/h 14 km/h 98 % 0 mm
07:56 -13.5 °C -13.3 °C 34235.8 hPa SSW 10.3 km/h 12.7 km/h 98 % 0 mm
08:01 -13.6 °C -13.3 °C 34235.8 hPa Calm   12.7 km/h 98 % 0 mm
08:06 -13.6 °C -13.3 °C 34235.8 hPa SSW 8 km/h 20.3 km/h 98 % 0 mm
08:11 -13.6 °C -13.3 °C 34235.8 hPa South 15 km/h 20.3 km/h 98 % 0 mm
08:17 -13.6 °C -13.3 °C 34235.8 hPa SSW 8 km/h 19.2 km/h 98 % 0 mm
08:22 -13.6 °C -13.3 °C 34235.8 hPa South 11.1 km/h 19.2 km/h 98 % 0 mm
08:27 -13.7 °C -13.9 °C 34235.8 hPa SSW 14 km/h 19.2 km/h 98 % 0 mm
08:32 -13.7 °C -13.9 °C 34198.6 hPa South 9.8 km/h 19.2 km/h 98 % 0 mm
08:37 -13.7 °C -13.9 °C 34198.6 hPa Calm   14 km/h 98 % 0 mm
08:42 -13.7 °C -13.9 °C 34198.6 hPa Calm   14 km/h 98 % 0 mm
08:47 -13.7 °C -13.9 °C 34235.8 hPa South 6.9 km/h 14 km/h 98 % 0 mm
08:52 -13.7 °C -13.9 °C 34235.8 hPa Calm   12.7 km/h 98 % 0 mm
08:57 -13.7 °C -13.9 °C 34235.8 hPa SSW 15 km/h 19.2 km/h 98 % 0 mm
09:02 -13.6 °C -13.3 °C 34235.8 hPa South 14.5 km/h 19.2 km/h 98 % 0 mm
09:07 -13.6 °C -13.3 °C 34235.8 hPa SSW 14 km/h 20.9 km/h 98 % 0 mm
09:12 -13.5 °C -13.3 °C 34235.8 hPa SSW 8.9 km/h 20.9 km/h 98 % 0 mm
09:17 -13.5 °C -13.3 °C 34235.8 hPa SW 8.9 km/h 20.9 km/h 98 % 0 mm
09:22 -13.4 °C -13.3 °C 34235.8 hPa SSW 12.7 km/h 26.7 km/h 98 % 0 mm
09:27 -13.4 °C -13.3 °C 34235.8 hPa SSW 15.6 km/h 26.7 km/h 98 % 0 mm
09:32 -13.4 °C -13.3 °C 34235.8 hPa SSW 14.5 km/h 22.5 km/h 98 % 0 mm
09:37 -13.4 °C -13.3 °C 34235.8 hPa SSW 10.3 km/h 22 km/h 98 % 0 mm
09:42 -13.4 °C -13.3 °C 34235.8 hPa SSW 14.5 km/h 22 km/h 98 % 0 mm
09:47 -13.3 °C -13.3 °C 34198.6 hPa SSW 16.9 km/h 22.5 km/h 98 % 0 mm
09:52 -13.3 °C -13.3 °C 34198.6 hPa South 11.1 km/h 22.5 km/h 98 % 0 mm
09:57 -13.3 °C -13.3 °C 34198.6 hPa SSW 14 km/h 20.3 km/h 98 % 0 mm
10:02 -13.2 °C -13.3 °C 34235.8 hPa SSW 14.5 km/h 26.7 km/h 98 % 0 mm
10:07 -13.2 °C -13.3 °C 34235.8 hPa SW 18.7 km/h 26.7 km/h 98 % 0 mm
10:12 -13.2 °C -12.8 °C 34235.8 hPa SW 16.9 km/h 22.5 km/h 98 % 0 mm
10:17 -13.1 °C -12.8 °C 34235.8 hPa SW 10.3 km/h 22.5 km/h 98 % 0 mm
10:22 -13.1 °C -12.8 °C 34235.8 hPa SSW 23 km/h 23 km/h 98 % 0 mm
10:27 -13.1 °C -12.8 °C 34235.8 hPa SSW 14 km/h 23 km/h 98 % 0 mm
10:32 -13.1 °C -12.8 °C 34198.6 hPa SW 16.3 km/h 20.9 km/h 98 % 0 mm
10:37 -13.1 °C -12.8 °C 34198.6 hPa SSW 15 km/h 20.9 km/h 98 % 0 mm
10:42 -13 °C -12.8 °C 34198.6 hPa SSW 14 km/h 16.3 km/h 98 % 0 mm
10:47 -13 °C -12.8 °C 34198.6 hPa South 9.8 km/h 16.3 km/h 98 % 0 mm
10:53 -12.9 °C -12.8 °C 34198.6 hPa SSW 14.5 km/h 16.3 km/h 98 % 0 mm
10:58 -12.9 °C -12.8 °C 34198.6 hPa SSW 11.1 km/h 17.4 km/h 98 % 0 mm
11:03 -12.9 °C -12.8 °C 34235.8 hPa SW 10.3 km/h 17.4 km/h 98 % 0 mm
11:08 -12.9 °C -12.8 °C 34235.8 hPa SSW 14.5 km/h 19.2 km/h 98 % 0 mm
11:13 -12.8 °C -12.8 °C 34235.8 hPa SSW 11.1 km/h 20.9 km/h 98 % 0 mm
11:18 -12.8 °C -12.8 °C 34198.6 hPa SW 14.5 km/h 20.9 km/h 98 % 0 mm
11:23 -12.8 °C -12.8 °C 34198.6 hPa SW 16.9 km/h 22 km/h 97 % 0 mm
11:28 -12.8 °C -12.8 °C 34198.6 hPa SSW 14.5 km/h 22 km/h 97 % 0 mm
11:33 -12.7 °C -12.8 °C 34235.8 hPa SSW 10.3 km/h 20.9 km/h 97 % 0 mm
11:38 -12.7 °C -12.8 °C 34235.8 hPa SSW 20.3 km/h 20.9 km/h 97 % 0 mm
11:43 -12.6 °C -12.8 °C 34198.6 hPa SSW 12.7 km/h 22 km/h 97 % 0 mm
11:48 -12.6 °C -12.8 °C 34198.6 hPa SSW 10.3 km/h 22 km/h 96 % 0 mm
11:53 -12.6 °C -12.8 °C 34198.6 hPa SW 22 km/h 25.4 km/h 96 % 0 mm
11:58 -12.6 °C -12.8 °C 34235.8 hPa WSW 14 km/h 29 km/h 96 % 0 mm
12:03 -12.5 °C -12.8 °C 34235.8 hPa SSW 15.6 km/h 29 km/h 95 % 0 mm
12:08 -12.4 °C -12.8 °C 34235.8 hPa SSW 16.9 km/h 27.7 km/h 95 % 0 mm
12:13 -12.3 °C -12.8 °C 34235.8 hPa SSW 14 km/h 27.7 km/h 95 % 0 mm
12:18 -12.3 °C -12.8 °C 34235.8 hPa SW 18.7 km/h 22.5 km/h 94 % 0 mm
12:24 -12.3 °C -12.8 °C 34235.8 hPa SW 19.6 km/h 26.7 km/h 94 % 0 mm
12:29 -12.3 °C -12.8 °C 34198.6 hPa SW 15.6 km/h 26.7 km/h 93 % 0 mm
12:34 -12.3 °C -12.8 °C 34198.6 hPa WSW 14.5 km/h 25.4 km/h 93 % 0 mm
12:39 -12.3 °C -12.8 °C 34198.6 hPa SSW 17.4 km/h 29.5 km/h 92 % 0 mm
12:44 -12.2 °C -12.8 °C 34235.8 hPa SSW 15.6 km/h 29.5 km/h 92 % 0 mm
12:49 -12.2 °C -12.8 °C 34235.8 hPa SSW 14 km/h 26.2 km/h 92 % 0 mm
12:54 -12.2 °C -12.8 °C 34235.8 hPa SSW 12.7 km/h 26.2 km/h 91 % 0 mm
12:59 -12.2 °C -12.8 °C 34198.6 hPa SW 14 km/h 23.8 km/h 91 % 0 mm
13:04 -12.2 °C -12.8 °C 34198.6 hPa SW 10.3 km/h 22.5 km/h 91 % 0 mm
13:09 -12.1 °C -12.8 °C 34198.6 hPa SW 19.6 km/h 22.5 km/h 90 % 0 mm
13:14 -12.1 °C -12.8 °C 34198.6 hPa SW 15.6 km/h 26.7 km/h 90 % 0 mm
13:19 -12.1 °C -12.8 °C 34198.6 hPa SW 16.9 km/h 26.7 km/h 90 % 0 mm
13:24 -12.1 °C -12.8 °C 34198.6 hPa SSW 20.3 km/h 25.4 km/h 89 % 0 mm
13:29 -12.1 °C -12.8 °C 34235.8 hPa SSW 17.9 km/h 25.4 km/h 89 % 0 mm
13:34 -12.1 °C -12.8 °C 34235.8 hPa WSW 16.9 km/h 25.4 km/h 88 % 0 mm
13:39 -12.1 °C -12.8 °C 34235.8 hPa SW 16.3 km/h 26.2 km/h 87 % 0 mm
13:44 -12.1 °C -12.8 °C 34198.6 hPa SW 24.8 km/h 27.2 km/h 87 % 0 mm
13:49 -12.1 °C -12.8 °C 34198.6 hPa SW 22 km/h 27.2 km/h 87 % 0 mm
13:54 -12.1 °C -12.8 °C 34198.6 hPa WSW 14.5 km/h 27.7 km/h 87 % 0 mm
13:59 -12 °C -12.8 °C 34198.6 hPa SSW 12.7 km/h 27.7 km/h 87 % 0 mm
14:04 -12 °C -13.3 °C 34198.6 hPa WSW 24.8 km/h 27.7 km/h 86 % 0 mm
14:09 -12.1 °C -13.3 °C 34198.6 hPa SW 16.3 km/h 27.7 km/h 86 % 0 mm
14:14 -12 °C -13.3 °C 34198.6 hPa WSW 15 km/h 25.4 km/h 86 % 0 mm
14:19 -12 °C -13.3 °C 34198.6 hPa WSW 17.9 km/h 27.2 km/h 85 % 0 mm
14:24 -12 °C -13.3 °C 34198.6 hPa WSW 24.8 km/h 27.7 km/h 85 % 0 mm
14:29 -12 °C -13.3 °C 34198.6 hPa WSW 18.7 km/h 27.7 km/h 85 % 0 mm
14:34 -12.1 °C -13.3 °C 34198.6 hPa WSW 19.2 km/h 27.2 km/h 85 % 0 mm
14:39 -12.1 °C -13.3 °C 34198.6 hPa WSW 15.6 km/h 27.2 km/h 85 % 0 mm
14:44 -12.2 °C -13.3 °C 34198.6 hPa SW 16.9 km/h 23 km/h 85 % 0 mm
14:49 -12.2 °C -13.3 °C 34198.6 hPa WSW 12.7 km/h 22.5 km/h 85 % 0 mm
14:54 -12.2 °C -13.3 °C 34198.6 hPa SW 14 km/h 22.5 km/h 85 % 0 mm
14:59 -12.2 °C -13.3 °C 34164.7 hPa SSW 9.8 km/h 19.2 km/h 85 % 0 mm
15:05 -12.3 °C -13.3 °C 34164.7 hPa SW 15.6 km/h 24.8 km/h 85 % 0 mm
15:10 -12.3 °C -13.3 °C 34164.7 hPa WSW 18.7 km/h 24.8 km/h 85 % 0 mm
15:15 -12.3 °C -13.3 °C 34198.6 hPa WSW 19.2 km/h 25.4 km/h 85 % 0 mm
15:20 -12.3 °C -13.3 °C 34198.6 hPa WSW 19.2 km/h 28.5 km/h 85 % 0 mm
15:25 -12.4 °C -13.3 °C 34198.6 hPa SSW 15 km/h 28.5 km/h 85 % 0 mm
15:30 -12.4 °C -13.3 °C 34198.6 hPa SW 16.9 km/h 19.6 km/h 85 % 0 mm
15:35 -12.4 °C -13.3 °C 34198.6 hPa SW 12.7 km/h 20.9 km/h 85 % 0 mm
15:40 -12.4 °C -13.3 °C 34198.6 hPa SW 12.7 km/h 20.9 km/h 85 % 0 mm
15:45 -12.4 °C -13.3 °C 34198.6 hPa South 14 km/h 19.2 km/h 85 % 0 mm
15:51 -12.5 °C -13.3 °C 34198.6 hPa SW 15.6 km/h 18.7 km/h 86 % 0 mm
15:56 -12.6 °C -13.9 °C 34198.6 hPa SSW 12.7 km/h 18.7 km/h 86 % 0 mm
16:01 -12.6 °C -13.9 °C 34198.6 hPa WSW 16.9 km/h 19.6 km/h 86 % 0 mm
16:06 -12.6 °C -13.9 °C 34198.6 hPa WSW 15 km/h 20.3 km/h 86 % 0 mm
16:11 -12.6 °C -13.9 °C 34198.6 hPa WSW 9.3 km/h 20.3 km/h 86 % 0 mm
16:16 -12.6 °C -13.9 °C 34198.6 hPa Calm   16.9 km/h 86 % 0 mm
16:21 -12.6 °C -13.9 °C 34198.6 hPa SW 9.8 km/h 16.9 km/h 86 % 0 mm
16:26 -12.6 °C -13.9 °C 34198.6 hPa SW 3.4 km/h 16.3 km/h 86 % 0 mm
16:31 -12.6 °C -13.9 °C 34198.6 hPa Calm   16.3 km/h 86 % 0 mm
16:36 -12.6 °C -13.9 °C 34198.6 hPa SSW 14.5 km/h 20.3 km/h 86 % 0 mm
16:41 -12.7 °C -13.9 °C 34198.6 hPa WSW 14.5 km/h 20.3 km/h 86 % 0 mm
16:46 -12.7 °C -13.9 °C 34198.6 hPa SW 14.5 km/h 20.9 km/h 86 % 0 mm
16:51 -12.7 °C -13.9 °C 34198.6 hPa SW 20.9 km/h 20.9 km/h 86 % 0 mm
16:56 -12.8 °C -13.9 °C 34198.6 hPa SW 15 km/h 20.9 km/h 86 % 0 mm
17:01 -12.8 °C -13.9 °C 34198.6 hPa SW 14 km/h 20.9 km/h 86 % 0 mm
17:06 -12.8 °C -13.9 °C 34198.6 hPa SW 7.6 km/h 17.4 km/h 87 % 0 mm
17:11 -12.9 °C -13.9 °C 34198.6 hPa SW 9.3 km/h 16.3 km/h 87 % 0 mm
17:16 -12.9 °C -13.9 °C 34198.6 hPa Calm   17.4 km/h 87 % 0 mm
17:21 -12.9 °C -13.9 °C 34198.6 hPa WSW 12.7 km/h 17.4 km/h 88 % 0 mm
17:26 -13 °C -13.9 °C 34198.6 hPa Calm   15.6 km/h 88 % 0 mm
17:31 -13 °C -13.9 °C 34198.6 hPa SSW 10.3 km/h 15.6 km/h 89 % 0 mm
17:36 -13 °C -13.9 °C 34198.6 hPa Calm   15.6 km/h 89 % 0 mm
17:41 -13 °C -13.9 °C 34198.6 hPa Calm   15.6 km/h 89 % 0 mm
17:46 -13.1 °C -13.9 °C 34198.6 hPa Calm   15.6 km/h 90 % 0 mm
17:51 -13.1 °C -13.9 °C 34198.6 hPa Calm   11.1 km/h 90 % 0 mm
17:56 -13.1 °C -13.9 °C 34198.6 hPa Calm     90 % 0 mm
18:01 -13.2 °C -13.9 °C 34198.6 hPa Calm   2.3 km/h 90 % 0 mm
18:06 -13.2 °C -13.9 °C 34198.6 hPa Calm   4.2 km/h 90 % 0 mm
18:11 -13.3 °C -13.9 °C 34198.6 hPa Calm   4.2 km/h 90 % 0 mm
18:16 -13.4 °C -13.9 °C 34198.6 hPa Calm     91 % 0 mm
18:21 -13.4 °C -14.4 °C 34198.6 hPa Calm     91 % 0 mm
18:26 -13.5 °C -14.4 °C 34198.6 hPa Calm     91 % 0 mm
18:31 -13.6 °C -14.4 °C 34235.8 hPa Calm     91 % 0 mm
18:37 -13.6 °C -14.4 °C 34235.8 hPa Calm   5.6 km/h 92 % 0 mm
18:42 -13.6 °C -14.4 °C 34235.8 hPa Calm   5.6 km/h 92 % 0 mm
18:47 -13.6 °C -13.9 °C 34235.8 hPa Calm     93 % 0 mm
18:52 -13.6 °C -13.9 °C 34235.8 hPa Calm     93 % 0 mm
18:57 -13.7 °C -14.4 °C 34235.8 hPa Calm     93 % 0 mm
19:02 -13.7 °C -14.4 °C 34235.8 hPa Calm     94 % 0 mm
19:07 -13.7 °C -14.4 °C 34235.8 hPa Calm   8.9 km/h 94 % 0 mm
19:12 -13.7 °C -14.4 °C 34235.8 hPa Calm   8.9 km/h 94 % 0 mm
19:17 -13.7 °C -13.9 °C 34235.8 hPa Calm   2.9 km/h 95 % 0 mm
19:22 -13.7 °C -13.9 °C 34235.8 hPa Calm     95 % 0 mm
19:27 -13.7 °C -13.9 °C 34235.8 hPa Calm     95 % 0 mm
19:32 -13.7 °C -13.9 °C 34235.8 hPa Calm     95 % 0 mm
19:37 -13.7 °C -13.9 °C 34235.8 hPa Calm   8.9 km/h 95 % 0 mm
19:42 -13.7 °C -13.9 °C 34235.8 hPa Calm   8.9 km/h 95 % 0 mm
19:47 -13.7 °C -13.9 °C 34235.8 hPa Calm     96 % 0 mm
19:52 -13.7 °C -13.9 °C 34235.8 hPa Calm     96 % 0 mm
19:57 -13.7 °C -13.9 °C 34235.8 hPa Calm   4.2 km/h 96 % 0 mm
20:02 -13.8 °C -13.9 °C 34235.8 hPa Calm   12.2 km/h 96 % 0 mm
20:07 -13.8 °C -13.9 °C 34235.8 hPa Calm   12.2 km/h 96 % 0 mm
20:12 -13.8 °C -13.9 °C 34235.8 hPa SSW 6.9 km/h 10.3 km/h 96 % 0 mm
20:17 -13.8 °C -13.9 °C 34235.8 hPa SSW 7.6 km/h 12.7 km/h 96 % 0 mm
20:22 -13.8 °C -13.9 °C 34235.8 hPa SSW 3.4 km/h 12.7 km/h 96 % 0 mm
20:27 -13.7 °C -13.9 °C 34235.8 hPa SW 8 km/h 12.7 km/h 97 % 0 mm
20:32 -13.7 °C -13.9 °C 34235.8 hPa Calm   12.7 km/h 97 % 0 mm
20:37 -13.7 °C -13.9 °C 34235.8 hPa Calm   12.7 km/h 97 % 0 mm
20:42 -13.7 °C -13.9 °C 34235.8 hPa Calm   12.2 km/h 96 % 0 mm
20:47 -13.8 °C -13.9 °C 34235.8 hPa Calm   12.2 km/h 96 % 0 mm
20:52 -13.8 °C -13.9 °C 34235.8 hPa Calm   12.2 km/h 96 % 0 mm
20:57 -13.8 °C -13.9 °C 34235.8 hPa South 12.7 km/h 14 km/h 96 % 0 mm
21:02 -13.9 °C -13.9 °C 34269.7 hPa Calm   14 km/h 96 % 0 mm
21:08 -13.9 °C -13.9 °C 34269.7 hPa Calm   16.3 km/h 96 % 0 mm
21:13 -13.9 °C -13.9 °C 34269.7 hPa South 9.3 km/h 16.3 km/h 97 % 0 mm
21:18 -14 °C -14.4 °C 34269.7 hPa South 2.9 km/h 14 km/h 97 % 0 mm
21:23 -14.1 °C -14.4 °C 34269.7 hPa Calm   9.3 km/h 97 % 0 mm
21:28 -14.1 °C -14.4 °C 34269.7 hPa SSW 5.1 km/h 12.2 km/h 97 % 0 mm
21:33 -14.1 °C -14.4 °C 34235.8 hPa Calm   12.2 km/h 97 % 0 mm
21:37 -14.2 °C -14.4 °C 34235.8 hPa Calm   9.8 km/h 97 % 0 mm
21:43 -14.2 °C -14.4 °C 34235.8 hPa Calm   9.8 km/h 97 % 0 mm
21:48 -14.2 °C -14.4 °C 34235.8 hPa SSW 10.3 km/h 14.5 km/h 97 % 0 mm
21:53 -14.2 °C -13.9 °C 34235.8 hPa SSW 10.3 km/h 15.6 km/h 98 % 0 mm
21:58 -14.1 °C -13.9 °C 34235.8 hPa SSW 9.8 km/h 17.4 km/h 98 % 0 mm
22:03 -14.2 °C -13.9 °C 34198.6 hPa SSW 10.3 km/h 17.4 km/h 98 % 0 mm
22:08 -14.1 °C -13.9 °C 34198.6 hPa SW 12.2 km/h 15.6 km/h 98 % 0 mm
22:13 -14.2 °C -13.9 °C 34198.6 hPa SW 12.7 km/h 15.6 km/h 98 % 0 mm
22:18 -14.2 °C -13.9 °C 34235.8 hPa SSW 9.3 km/h 14 km/h 98 % 0 mm
22:23 -14.2 °C -13.9 °C 34235.8 hPa Calm   12.7 km/h 98 % 0 mm
22:28 -14.2 °C -13.9 °C 34235.8 hPa SW 9.3 km/h 10.3 km/h 98 % 0 mm
22:33 -14.2 °C -13.9 °C 34235.8 hPa Calm   10.3 km/h 98 % 0 mm
22:38 -14.2 °C -13.9 °C 34235.8 hPa SSW 12.2 km/h 12.2 km/h 98 % 0 mm
22:43 -14.2 °C -13.9 °C 34235.8 hPa SSW 11.1 km/h 16.3 km/h 98 % 0 mm
22:48 -14.2 °C -14.4 °C 34235.8 hPa South 8.9 km/h 16.3 km/h 98 % 0 mm
22:53 -14.2 °C -14.4 °C 34235.8 hPa Calm   11.1 km/h 98 % 0 mm
22:58 -14.3 °C -14.4 °C 34235.8 hPa Calm   10.3 km/h 98 % 0 mm
23:03 -14.3 °C -14.4 °C 34235.8 hPa SSW 5.1 km/h 6.9 km/h 98 % 0 mm
23:08 -14.3 °C -14.4 °C 34235.8 hPa Calm   9.3 km/h 98 % 0 mm
23:13 -14.4 °C -14.4 °C 34235.8 hPa Calm   9.3 km/h 98 % 0 mm
23:18 -14.4 °C -14.4 °C 34235.8 hPa Calm   9.3 km/h 98 % 0 mm
23:23 -14.4 °C -14.4 °C 34235.8 hPa SSW 4.2 km/h 9.8 km/h 98 % 0 mm
23:28 -14.4 °C -14.4 °C 34235.8 hPa Calm   9.8 km/h 98 % 0 mm
23:33 -14.4 °C -14.4 °C 34235.8 hPa Calm   8.9 km/h 98 % 0 mm
23:38 -14.4 °C -14.4 °C 34235.8 hPa SSW 5.6 km/h 8.9 km/h 98 % 0 mm
23:43 -14.4 °C -14.4 °C 34235.8 hPa Calm   10.3 km/h 98 % 0 mm
23:48 -14.5 °C -14.4 °C 34235.8 hPa Calm   10.3 km/h 98 % 0 mm
23:53 -14.5 °C -14.4 °C 34235.8 hPa SSW 5.6 km/h 10.3 km/h 98 % 0 mm
23:59 -14.6 °C -14.4 °C 34235.8 hPa SW 9.8 km/h 15 km/h 98 % 0 mm
Le Gheer Warneton
Courtoisie de Weather Underground - 2.25 mb

Mise a jour : 24/02/2018 01:05:11
Généré par Cumulus 1.9.4 (1099)